Location: Bathurst
(33.4193°S, 149.5775°E)
Time: 10:40:37
(UTC+10:00)

Vanguard 1 Rocket - Pass Details

Date: 19 June 2021
Orbit: 650 x 4226 km, 34.3° (Epoch: 02 August)

Event Time Altitude Azimuth Distance (km) Brightness Sun altitude
Rises 15:07:05 0° 256° (WSW) 4,717 11.5 18.2°
Reaches altitude 10° 15:11:08 10° 263° (W) 3,217 10.9 17.7°
Maximum altitude 15:17:30 34° 326° (NW) 1,379 10.0 16.7°
Drops below altitude 10° 15:21:50 10° 32° (NNE) 2,163 9.6 16.1°
Sets 15:24:03 0° 42° (NE) 2,981 10.1 15.7°
